Temp
19 18 18 17 18 19 20 22 22 21 22 26 26 25 22 23 21 19 17 18 18 18 17 18 18 19 19 19 19 19 19 18 18 18 18 18 18 18 18 18 17 18 18 18 19 18 18 18 19
19 19 17 18 20 19 20 23 23 22 25 25 25 24 23 19 16 16 17 18 18 18 18 18 19 19 19 19 19 19 19 18 18 19 19 18 18 18 18 18 18 18 18 18 18 18 18 18 18
19 18 18 19 20 20 20 23 24 24 26 25 24 23 22 17 16 16 18 18 17 18 18 18 18 19 19 19 19 19 19 19 18 19 18 18 19 18 19 19 18 18 18 18 18 18 18 18 18
18 18 19 19 20 21 20 22 27 27 26 24 23 22 19 17 16 18 18 18 18 18 19 18 18 19 19 19 19 19 18 19 19 19 18 18 18 18 18 18 18 18 18 18 18 18 18 18 18
18 19 20 20 21 20 23 26 26 26 25 23 22 20 18 18 18 19 18 18 18 18 18 18 18 19 19 19 19 19 19 19 19 19 18 18 18 19 19 18 18 18 18 18 18 18 18 18 18
19 18 19 19 20 21 24 25 28 27 24 22 20 20 18 19 19 18 18 18 19 19 18 18 18 19 19 19 19 19 19 19 19 19 19 18 19 19 19 18 18 19 19 18 18 19 19 19 18
21 21 20 19 20 22 25 23 28 26 24 22 21 20 17 18 18 18 18 19 19 19 18 18 18 19 19 19 19 19 19 19 19 19 19 19 18 18 19 19 19 19 19 18 18 19 19 19 19
22 23 23 19 21 22 28 29 27 25 24 22 21 19 17 19 19 19 19 19 18 19 19 19 19 19 19 19 19 19 19 19 19 19 19 19 18 19 19 19 19 19 19 18 19 19 19 19 19
23 23 23 23 22 26 26 26 27 26 24 23 23 20 19 19 19 19 19 18 18 19 19 19 19 19 19 19 19 20 19 19 19 18 18 18 19 19 19 19 19 19 19 19 19 19 19 19 19
24 22 23 25 25 25 27 26 27 27 23 21 20 19 19 19 19 19 19 19 19 19 19 19 19 19 20 20 20 19 19 19 19 19 19 19 19 19 18 19 19 19 18 19 19 19 19 19 18
26 24 23 25 25 26 29 28 30 27 23 20 20 19 19 19 19 20 19 19 19 20 20 19 19 20 20 20 20 19 19 19 19 19 19 20 19 18 18 18 19 18 18 20 19 19 19 19 19
26 25 25 26 26 28 27 29 30 27 23 21 20 20 20 20 20 20 20 20 19 20 20 19 20 19 19 19 20 20 20 20 20 20 19 19 19 19 19 19 18 19 18 20 20 19 19 19 19
28 25 27 27 27 27 26 28 28 25 22 20 20 20 20 20 20 20 21 21 20 20 20 20 20 20 19 19 20 20 20 20 20 20 20 18 18 19 19 19 18 19 18 19 19 19 19 20 19
29 26 27 28 26 27 27 27 28 25 22 21 20 20 20 20 20 20 20 21 21 21 20 20 20 20 19 20 20 19 20 20 20 20 20 19 19 19 19 19 18 19 19 19 19 19 19 19 20
29 29 27 28 27 25 27 25 24 23 24 22 21 20 20 20 20 21 20 21 21 21 21 21 21 21 20 20 20 20 20 21 20 20 20 20 19 19 19 19 20 19 19 19 19 19 19 19 19
28 28 27 29 28 27 26 19 21 26 22 23 23 21 21 21 21 21 21 21 21 22 22 21 21 21 21 20 20 20 20 20 21 20 20 20 20 19 19 19 19 19 19 19 19 19 20 20 20
26 26 27 29 30 31 28 18 21 26 24 23 24 23 22 21 21 21 21 22 22 22 21 22 21 21 21 21 21 20 21 20 20 20 20 20 20 20 20 20 20 19 19 19 19 19 19 20 20
24 26 27 28 30 31 24 22 20 21 21 24 23 23 23 22 22 22 22 22 22 22 22 22 21 21 21 21 20 20 20 20 20 20 21 21 20 20 20 20 19 19 20 20 20 20 19 20 20
27 28 28 30 31 31 29 23 23 23 24 25 26 23 23 24 23 23 22 22 22 22 22 22 21 21 21 20 21 21 20 20 20 20 20 20 20 20 20 20 19 19 20 19 19 19 20 20 20
27 27 27 30 31 31 26 23 23 22 21 22 23 23 24 25 25 25 24 23 23 23 23 22 22 21 21 20 21 21 20 20 20 20 20 20 20 20 19 19 19 19 19 19 19 19 20 20 20
27 26 27 28 31 30 27 24 24 23 21 21 22 25 25 26 26 26 25 25 24 23 23 22 22 21 21 20 20 20 20 20 20 20 20 20 20 20 20 19 19 19 19 19 19 19 19 20 20
25 28 29 29 29 25 29 24 21 23 23 22 23 23 24 26 26 26 25 25 24 24 23 23 22 21 21 20 20 20 21 20 20 20 21 20 20 20 20 20 19 20 19 19 20 20 20 19 20
27 28 29 29 28 28 28 27 23 24 24 24 24 24 24 26 26 26 25 25 24 24 23 23 22 21 21 20 20 21 21 21 21 20 20 21 20 20 20 20 20 19 19 20 19 19 20 20 20
29 28 28 28 27 26 26 27 26 26 25 26 25 25 24 26 27 26 25 25 25 24 23 23 22 22 21 20 20 21 21 21 21 21 21 21 21 21 20 20 20 20 19 20 19 19 19 20 20
28 25 23 24 24 25 25 27 25 30 29 28 28 26 25 28 27 26 25 25 24 24 23 23 23 22 22 21 21 21 21 21 21 21 21 21 21 21 21 20 20 20 20 20 19 19 19 20 20
27 26 23 21 23 25 26 26 27 29 33 34 31 29 29 29 28 27 26 25 25 25 24 23 23 23 22 22 22 22 21 21 21 22 21 21 21 21 21 21 21 21 21 21 20 20 20 20 21
26 26 26 24 25 24 25 27 28 30 30 32 33 31 30 30 29 28 27 26 26 25 24 24 23 23 23 23 23 22 22 21 22 22 22 21 21 21 21 21 22 21 21 21 20 20 20 20 20
28 27 25 26 23 23 26 26 27 28 30 29 31 32 32 31 29 28 27 26 26 26 26 24 24 24 24 23 23 23 24 23 22 22 22 22 22 22 21 22 22 22 22 21 21 20 20 19 20
27 26 27 25 22 22 23 27 28 28 30 30 31 32 33 32 30 29 27 27 28 27 26 25 24 24 24 24 24 23 24 25 24 22 23 23 22 22 22 22 22 22 22 22 21 21 20 20 20
28 28 25 26 23 23 23 26 29 30 31 32 31 34 33 33 31 29 28 27 28 27 26 26 25 25 25 25 24 23 23 23 24 23 23 23 23 23 21 21 22 21 21 21 21 21 21 21 20
Height
1508 1508 1508 1509 1515 1511 1508 1499 1494 1496 1497 1487 1490 1493 1499 1497 1503 1520 1523 1531 1537 1540 1544 1546 1549 1552 1555 1558 1560 1562 1563 1564 1565 1566 1567 1567 1568 1568 1569 1569 1569 1570 1571 1572 1573 1574 1575 1575 1574
1508 1508 1510 1510 1513 1523 1515 1492 1494 1490 1486 1489 1492 1496 1498 1509 1508 1514 1522 1533 1538 1542 1545 1548 1551 1553 1557 1559 1562 1564 1565 1566 1567 1568 1568 1569 1569 1569 1570 1570 1571 1572 1573 1574 1575 1575 1576 1577 1577
1509 1510 1512 1510 1509 1515 1510 1489 1488 1490 1487 1487 1492 1497 1501 1511 1513 1517 1525 1532 1538 1543 1546 1550 1553 1555 1558 1561 1564 1566 1567 1568 1568 1569 1570 1570 1571 1572 1572 1572 1572 1573 1574 1574 1575 1576 1578 1579 1579
1509 1511 1512 1512 1512 1501 1500 1489 1478 1484 1489 1489 1492 1500 1509 1512 1514 1519 1529 1534 1539 1544 1548 1551 1554 1557 1561 1563 1566 1567 1569 1569 1570 1571 1572 1573 1574 1574 1574 1574 1574 1574 1575 1576 1577 1578 1579 1581 1582
1509 1510 1511 1511 1503 1500 1489 1484 1482 1482 1487 1492 1491 1508 1512 1518 1519 1525 1531 1536 1539 1544 1549 1552 1556 1560 1563 1565 1567 1569 1570 1571 1573 1574 1574 1576 1576 1576 1576 1576 1576 1577 1577 1578 1579 1580 1581 1582 1583
1508 1506 1516 1519 1507 1491 1487 1485 1480 1482 1490 1496 1501 1507 1517 1519 1522 1527 1532 1537 1541 1545 1549 1554 1558 1561 1564 1566 1568 1570 1572 1574 1575 1576 1577 1577 1578 1578 1579 1579 1579 1579 1580 1581 1582 1582 1582 1583 1585
1503 1504 1519 1518 1510 1499 1477 1485 1471 1481 1490 1497 1499 1508 1521 1524 1527 1528 1534 1538 1543 1547 1550 1555 1559 1562 1565 1567 1569 1571 1573 1575 1576 1576 1578 1579 1581 1582 1582 1582 1583 1583 1584 1585 1585 1585 1585 1585 1585
1496 1501 1504 1508 1500 1498 1479 1473 1475 1479 1489 1498 1500 1510 1518 1522 1528 1531 1536 1540 1543 1548 1552 1556 1560 1563 1566 1569 1570 1572 1573 1575 1576 1578 1578 1580 1582 1583 1584 1586 1587 1588 1589 1589 1589 1588 1588 1587 1586
1494 1499 1501 1503 1502 1488 1480 1482 1480 1480 1487 1493 1498 1500 1513 1522 1528 1532 1536 1542 1544 1549 1553 1557 1560 1564 1567 1570 1571 1572 1575 1576 1578 1580 1580 1581 1582 1583 1586 1588 1590 1589 1589 1590 1591 1592 1591 1590 1588
1491 1496 1493 1484 1485 1487 1482 1486 1479 1484 1492 1499 1503 1512 1518 1523 1528 1531 1534 1539 1543 1548 1553 1557 1561 1564 1567 1570 1572 1574 1576 1577 1578 1580 1581 1582 1583 1584 1586 1590 1590 1592 1592 1591 1591 1593 1593 1593 1591
1483 1487 1484 1477 1479 1478 1476 1479 1479 1482 1494 1495 1503 1512 1519 1524 1529 1532 1536 1539 1542 1547 1552 1557 1560 1564 1567 1570 1573 1576 1577 1578 1580 1581 1582 1582 1583 1585 1588 1591 1591 1594 1590 1587 1587 1591 1593 1594 1593
1480 1478 1479 1476 1476 1476 1474 1472 1475 1476 1489 1496 1500 1512 1518 1523 1527 1530 1535 1538 1542 1546 1550 1556 1560 1564 1567 1570 1574 1576 1577 1578 1580 1582 1581 1581 1583 1585 1588 1589 1591 1593 1591 1587 1587 1591 1593 1593 1593
1472 1474 1472 1475 1477 1477 1478 1474 1476 1482 1490 1497 1505 1515 1520 1524 1528 1532 1536 1540 1542 1546 1549 1553 1559 1563 1566 1570 1574 1575 1576 1578 1580 1581 1581 1590 1589 1589 1586 1588 1591 1595 1593 1591 1591 1593 1592 1593 1592
1461 1466 1466 1468 1471 1474 1482 1485 1480 1489 1493 1501 1507 1514 1522 1525 1528 1532 1535 1538 1542 1544 1548 1551 1557 1562 1566 1570 1572 1575 1576 1578 1580 1582 1583 1589 1589 1588 1587 1587 1589 1593 1593 1591 1592 1592 1593 1592 1592
1461 1464 1466 1467 1465 1473 1486 1490 1496 1503 1492 1499 1508 1512 1521 1525 1528 1530 1532 1536 1539 1544 1546 1550 1555 1560 1564 1568 1571 1574 1577 1580 1581 1582 1583 1584 1585 1584 1587 1586 1587 1590 1590 1592 1594 1593 1593 1593 1593
1459 1459 1472 1451 1460 1464 1481 1509 1494 1490 1507 1501 1507 1512 1517 1521 1525 1528 1532 1535 1538 1542 1544 1548 1552 1557 1561 1566 1569 1572 1576 1579 1581 1581 1583 1584 1584 1586 1585 1587 1589 1589 1589 1591 1593 1592 1593 1593 1593
1456 1468 1460 1454 1448 1452 1463 1504 1487 1480 1489 1502 1505 1511 1515 1518 1520 1524 1527 1531 1535 1539 1542 1546 1549 1553 1558 1563 1567 1571 1574 1576 1579 1580 1582 1584 1585 1585 1585 1588 1588 1589 1589 1591 1591 1592 1593 1593 1593
1468 1462 1456 1455 1444 1444 1466 1480 1484 1483 1491 1494 1504 1510 1511 1513 1515 1518 1524 1528 1532 1536 1539 1543 1546 1550 1555 1559 1564 1568 1571 1573 1577 1578 1580 1582 1584 1585 1585 1587 1588 1589 1590 1590 1591 1592 1592 1593 1594
1449 1449 1450 1439 1433 1444 1449 1468 1476 1486 1488 1478 1487 1498 1504 1505 1509 1515 1519 1524 1529 1532 1535 1539 1542 1546 1551 1555 1559 1563 1567 1570 1573 1576 1577 1579 1581 1583 1584 1585 1587 1588 1589 1589 1590 1592 1592 1593 1593
1444 1449 1449 1434 1426 1432 1452 1470 1470 1467 1473 1473 1477 1486 1491 1498 1503 1509 1513 1518 1522 1526 1530 1535 1539 1541 1546 1550 1555 1559 1563 1567 1571 1574 1575 1577 1579 1581 1582 1583 1585 1586 1587 1589 1590 1591 1592 1593 1593
1441 1446 1443 1443 1427 1427 1449 1473 1476 1480 1485 1487 1477 1471 1479 1486 1493 1500 1506 1510 1515 1519 1524 1529 1534 1537 1542 1546 1552 1557 1562 1565 1567 1569 1572 1574 1576 1578 1580 1582 1583 1585 1587 1588 1589 1589 1590 1592 1593
1447 1429 1432 1431 1439 1460 1428 1481 1480 1470 1472 1479 1483 1472 1478 1482 1488 1494 1499 1504 1507 1512 1518 1525 1530 1534 1538 1542 1546 1550 1553 1556 1560 1564 1568 1571 1574 1576 1577 1579 1581 1583 1584 1586 1587 1587 1589 1590 1591
1430 1427 1429 1429 1439 1441 1438 1451 1459 1453 1452 1462 1467 1465 1467 1472 1476 1482 1489 1492 1499 1505 1511 1518 1525 1530 1534 1537 1541 1545 1549 1552 1557 1561 1565 1568 1570 1573 1575 1577 1579 1581 1582 1584 1585 1586 1587 1589 1590
1418 1426 1428 1427 1435 1458 1442 1443 1447 1445 1438 1436 1453 1455 1456 1463 1468 1475 1480 1489 1494 1501 1506 1511 1518 1523 1528 1533 1535 1540 1543 1548 1553 1557 1560 1564 1566 1569 1572 1574 1576 1578 1580 1581 1582 1583 1585 1587 1588
1414 1431 1460 1464 1457 1458 1434 1441 1436 1411 1410 1414 1425 1435 1448 1453 1459 1466 1474 1481 1488 1493 1499 1505 1511 1516 1521 1526 1530 1534 1538 1543 1548 1552 1556 1559 1562 1565 1568 1570 1572 1573 1576 1578 1580 1581 1582 1584 1586
1411 1417 1445 1472 1464 1450 1429 1444 1425 1400 1397 1399 1411 1419 1432 1441 1447 1454 1462 1469 1478 1484 1490 1495 1501 1508 1514 1519 1523 1529 1534 1538 1542 1547 1552 1555 1558 1561 1564 1567 1569 1571 1573 1575 1577 1578 1580 1581 1584
1405 1414 1409 1434 1428 1446 1434 1421 1405 1396 1398 1400 1403 1410 1419 1429 1436 1444 1453 1461 1468 1476 1482 1487 1493 1499 1505 1510 1516 1522 1527 1531 1536 1541 1547 1551 1554 1558 1560 1563 1565 1567 1570 1571 1573 1574 1576 1579 1581
1384 1393 1424 1419 1459 1460 1436 1431 1418 1404 1396 1397 1399 1402 1407 1416 1426 1436 1444 1453 1461 1467 1472 1480 1485 1491 1498 1504 1510 1515 1521 1526 1530 1535 1541 1545 1549 1553 1556 1558 1561 1563 1565 1566 1569 1571 1574 1576 1577
1386 1395 1395 1412 1429 1455 1458 1423 1386 1390 1383 1387 1388 1393 1400 1408 1418 1428 1437 1445 1452 1459 1467 1473 1479 1486 1492 1498 1504 1509 1513 1519 1525 1529 1534 1539 1544 1548 1551 1553 1555 1558 1559 1562 1565 1567 1570 1571 1573
1369 1380 1391 1411 1430 1424 1431 1414 1368 1363 1363 1371 1378 1384 1392 1401 1411 1421 1430 1438 1446 1453 1461 1467 1473 1478 1484 1491 1497 1503 1508 1513 1517 1523 1527 1532 1537 1542 1546 1548 1550 1552 1555 1559 1562 1563 1564 1566 1568
Wind_Speed
6 9 6 2 2 2 4 3 3 5 2 13 17 12 9 5 3 5 32 37 31 27 26 25 23 24 23 21 16 15 14 15 15 15 14 14 14 15 14 15 15 14 13 13 13 12 11 13 16
9 8 4 3 2 2 2 3 12 6 26 29 24 16 9 5 8 30 45 35 30 28 27 24 23 24 22 19 15 14 14 14 14 13 12 12 13 13 13 14 14 13 13 14 13 12 13 15 16
9 7 2 2 2 3 3 6 7 15 25 19 8 13 8 6 22 43 43 38 26 27 27 26 23 22 20 18 16 14 14 13 13 12 13 13 14 13 14 14 13 14 13 13 12 12 13 16 16
10 6 7 1 2 9 6 12 15 19 20 16 21 11 12 17 34 32 41 34 26 27 26 23 23 21 20 19 16 15 13 13 12 12 13 14 13 12 13 14 14 14 14 13 12 12 12 13 15
11 3 2 3 3 5 11 19 22 15 13 21 12 9 19 13 25 46 38 32 27 27 26 24 22 21 20 18 16 14 13 12 11 12 13 12 13 14 14 14 14 14 13 13 12 11 10 11 14
6 5 3 3 8 14 17 18 20 21 25 24 22 20 9 22 50 39 31 32 27 29 27 24 22 20 19 17 16 13 12 12 12 13 13 13 13 15 14 15 15 14 14 14 13 13 14 14 13
7 3 6 4 6 11 16 9 20 23 23 17 30 9 24 44 40 36 31 28 27 25 27 25 22 21 18 17 16 13 12 13 14 14 15 14 13 13 13 14 14 14 13 12 11 11 13 15 15
18 3 3 6 10 6 4 11 35 31 19 32 26 9 23 41 38 33 27 28 23 23 26 25 23 21 19 17 15 13 12 13 14 16 16 17 15 13 12 12 12 12 11 9 10 11 13 16 16
28 8 8 1 2 8 12 6 26 25 37 13 16 35 44 40 38 37 36 32 27 23 25 25 22 20 18 17 15 13 13 15 17 16 15 14 13 11 9 10 9 11 10 8 9 9 10 15 16
17 5 5 8 8 4 19 9 25 18 26 27 33 35 43 39 41 37 38 35 33 27 26 24 22 20 19 16 14 14 16 16 15 11 11 12 12 9 9 8 7 9 9 6 8 10 11 15 14
20 10 2 8 13 17 10 8 13 27 20 41 41 44 41 40 36 35 37 34 35 26 25 23 22 18 17 16 13 16 16 12 7 13 9 9 11 8 5 4 6 9 8 2 4 8 9 10 10
14 9 9 12 15 7 5 3 18 26 24 42 51 45 41 37 36 33 38 37 32 28 25 21 19 18 18 15 10 14 12 9 5 8 5 9 7 5 6 5 4 4 3 7 5 5 5 10 10
16 13 21 15 18 20 22 2 4 38 44 44 46 40 36 36 40 31 36 32 34 29 30 26 22 19 17 19 9 12 8 5 7 3 3 5 4 4 4 5 5 8 1 1 5 6 6 9 8
21 23 25 21 14 11 12 12 7 35 44 42 42 40 36 33 35 35 32 34 35 31 36 31 28 24 20 18 16 12 10 10 9 5 3 6 6 6 5 3 2 6 7 7 4 5 1 8 8
29 16 17 17 22 1 16 5 8 14 41 41 39 40 38 32 31 36 33 41 35 34 34 36 32 27 26 23 22 16 18 14 12 9 8 5 5 4 4 7 7 4 8 9 5 5 3 6 7
20 19 16 12 23 15 22 5 12 12 6 33 36 38 39 40 39 39 39 41 37 34 33 36 32 28 28 26 26 21 22 14 10 11 8 5 11 7 9 9 5 5 5 3 4 3 8 5 5
11 13 10 7 11 12 19 12 20 33 18 14 34 35 39 41 43 42 38 47 40 38 34 36 32 28 25 28 29 25 24 17 12 12 11 8 4 10 10 3 1 5 4 6 5 2 2 2 3
11 8 9 15 18 21 14 15 20 32 27 18 17 23 37 42 45 47 44 42 43 41 37 33 28 24 21 21 30 27 23 20 17 16 14 11 9 7 10 6 5 7 8 6 3 4 2 4 4
14 17 12 14 17 14 10 19 25 25 27 29 29 26 27 40 44 43 48 47 43 43 40 38 32 28 26 23 27 27 28 23 23 19 15 13 12 9 10 8 8 4 6 5 3 7 5 4 2
19 20 17 15 18 12 19 23 21 23 17 33 35 31 33 38 38 40 42 46 47 47 43 41 38 32 30 27 24 25 23 23 20 22 18 14 13 10 10 10 6 7 7 7 4 10 8 8 12
19 19 19 14 13 10 16 9 14 8 10 19 27 45 42 44 43 43 46 44 45 44 43 42 39 37 34 30 26 22 22 19 21 17 22 18 18 17 10 10 11 11 9 9 5 9 11 9 9
18 21 21 21 11 5 11 8 12 17 17 16 33 40 39 42 45 45 50 46 47 47 45 42 40 40 38 34 31 28 29 28 25 21 16 20 21 17 14 11 12 12 11 11 5 8 10 10 7
18 11 19 21 15 9 7 6 11 25 23 21 32 43 44 43 50 50 54 53 51 49 49 44 41 39 41 39 35 31 29 28 25 23 22 18 18 16 14 13 12 14 12 12 9 10 10 10 7
16 15 17 18 14 13 9 11 7 22 24 25 35 46 51 47 50 52 55 50 51 47 48 46 44 41 41 43 40 36 34 31 29 27 25 21 20 20 19 16 14 15 13 14 14 12 10 10 13
19 12 7 9 9 11 10 6 8 10 11 30 34 51 55 54 53 53 49 50 49 49 48 49 46 44 42 42 44 41 36 32 30 28 25 25 24 24 21 20 18 16 16 13 18 16 13 14 18
19 20 7 11 6 10 8 8 8 11 2 23 46 59 53 54 55 54 55 55 54 52 50 50 49 47 44 42 42 42 41 36 33 29 30 25 25 23 21 18 20 16 10 13 18 20 15 13 15
12 19 11 4 6 2 5 8 12 18 10 8 16 44 51 52 55 54 56 56 58 55 53 53 51 48 45 42 42 42 43 43 38 33 31 30 28 25 23 23 21 22 18 14 16 23 20 17 14
19 11 13 9 9 11 9 9 14 13 17 10 12 26 41 50 52 53 56 55 57 56 54 54 52 50 45 42 42 42 42 43 43 38 34 33 30 27 28 21 19 23 21 19 17 22 24 21 18
12 12 15 6 6 6 5 11 11 17 21 18 16 23 37 36 51 53 54 56 56 54 53 54 54 51 48 44 41 41 42 41 42 43 38 35 34 29 27 27 21 23 25 22 18 22 26 27 23
18 19 11 11 13 4 4 10 5 10 26 22 15 27 34 40 52 53 53 56 57 53 54 53 54 53 50 44 43 42 41 42 42 43 41 38 35 37 32 30 30 24 25 24 20 19 27 27 28
Wind_Direction
157 133 116 218 298 201 326 251 118 155 64 92 119 122 93 101 35 115 142 150 147 141 138 137 140 139 141 139 129 118 117 112 105 102 101 100 99 93 93 100 106 107 111 107 106 101 96 93 85
161 139 182 294 275 0 229 255 190 206 115 104 98 105 71 76 90 135 145 149 145 141 140 137 141 141 144 143 135 128 120 113 106 102 102 100 100 102 100 102 106 111 111 107 107 100 88 95 93
166 168 257 202 23 318 264 230 152 167 118 112 105 69 74 98 130 137 149 142 139 149 143 142 143 146 146 143 137 130 124 114 104 102 104 99 99 102 104 105 108 110 114 115 107 95 92 91 97
159 204 259 252 344 260 249 312 163 124 103 100 111 76 74 125 137 148 141 134 151 148 147 144 145 146 144 143 139 133 126 114 105 104 101 98 102 105 108 110 112 109 111 114 107 99 94 93 102
188 225 353 291 281 269 249 249 128 124 96 109 95 92 116 138 153 139 134 138 159 152 150 146 146 147 144 141 139 136 126 115 109 104 101 101 102 107 105 106 105 103 105 104 101 93 87 99 101
200 83 32 333 334 275 279 291 149 119 119 106 103 112 97 138 141 137 134 155 166 152 152 149 148 150 145 145 142 137 127 117 110 102 99 101 106 109 110 106 101 99 100 99 96 92 84 88 102
228 200 123 254 244 284 272 198 135 127 127 123 132 101 139 146 144 136 150 161 155 155 155 153 153 152 151 150 145 138 126 120 112 109 108 106 103 104 105 104 96 93 94 94 96 94 91 89 101
223 242 206 189 281 275 33 225 120 129 131 137 134 140 157 151 153 143 149 149 151 163 161 159 157 157 157 152 145 137 134 125 118 119 117 106 99 99 103 101 90 90 90 88 91 88 96 104 109
236 256 283 342 279 296 52 17 115 128 138 149 191 150 157 146 153 154 149 150 163 167 167 163 161 160 160 155 147 143 135 127 123 124 121 106 104 95 88 98 93 97 98 88 87 104 103 107 113
232 236 236 212 231 233 149 204 133 124 107 104 112 135 149 156 160 157 161 158 169 173 174 167 164 163 161 154 149 138 133 131 137 127 121 109 104 102 91 97 102 83 84 73 71 96 122 122 106
245 226 210 259 274 273 230 179 153 134 128 137 137 145 154 158 161 166 164 160 173 175 174 170 166 161 157 147 150 141 132 134 131 115 108 130 122 132 147 127 111 97 112 9 109 150 129 129 112
218 206 206 278 268 297 279 108 149 142 151 147 147 153 157 165 169 173 171 165 171 174 172 167 161 154 162 152 145 140 137 125 115 134 144 136 140 146 185 189 143 142 167 69 66 105 113 94 69
226 194 212 243 241 258 280 224 273 124 141 145 148 160 165 168 172 172 173 171 182 176 176 174 166 169 179 194 176 137 126 168 153 151 160 111 171 196 155 115 155 76 24 159 59 97 81 95 65
241 193 211 184 258 224 228 9 105 131 140 146 153 161 171 173 175 179 175 179 178 179 184 180 175 175 174 175 176 195 178 200 221 189 180 178 133 155 145 172 128 99 100 119 55 59 121 113 102
251 255 226 208 209 208 192 68 352 54 147 150 159 162 175 179 178 184 180 181 182 185 190 185 183 183 189 181 184 177 173 183 181 204 211 230 207 153 137 178 138 119 98 109 99 79 107 126 119
244 251 228 221 173 191 179 151 170 103 40 155 164 169 175 185 188 190 191 186 184 188 195 188 190 195 198 198 187 175 179 175 197 214 221 265 214 191 200 182 185 130 122 113 121 92 128 122 134
259 247 230 239 205 176 191 153 207 180 194 198 171 177 181 185 192 197 193 190 184 185 194 194 198 204 210 205 198 184 184 177 194 215 229 238 226 206 203 195 153 138 139 178 161 197 167 149 148
235 232 235 218 238 210 148 176 184 188 186 170 174 191 185 189 196 198 195 193 189 187 198 195 200 205 210 203 204 196 190 188 199 201 226 235 232 217 226 195 138 137 140 153 154 183 182 122 108
242 244 224 240 225 221 188 153 174 203 190 183 190 209 213 195 199 200 196 201 194 191 197 198 196 204 211 209 204 201 197 197 197 200 212 232 232 239 221 212 184 213 200 176 229 193 203 157 155
237 247 258 235 247 196 136 162 187 173 177 187 203 207 219 194 197 196 183 185 191 193 196 201 204 208 211 216 212 210 199 204 207 203 205 228 233 246 240 223 208 200 207 196 230 182 183 176 157
235 241 247 252 254 135 134 143 166 194 261 245 184 201 202 190 193 191 189 191 191 195 199 201 204 208 210 216 218 212 209 207 215 214 206 212 234 243 230 222 202 193 210 217 212 204 205 183 169
220 237 248 258 262 181 171 161 199 176 210 212 213 202 213 191 191 194 192 195 196 201 205 207 208 210 213 215 216 215 207 203 210 217 218 211 225 237 239 229 219 213 207 215 197 184 185 188 181
235 226 242 254 263 268 218 207 202 197 210 199 214 200 210 200 190 191 194 197 200 201 204 209 209 212 211 216 219 219 214 212 210 215 223 228 226 227 234 236 224 229 231 232 199 194 195 195 200
225 227 242 245 244 249 240 197 201 199 209 199 207 201 204 203 191 192 196 193 196 202 205 208 209 213 215 214 220 219 219 216 214 214 217 223 231 233 233 232 242 235 230 224 218 210 215 214 204
213 219 230 238 228 233 239 212 213 227 196 194 194 192 202 193 189 189 189 190 192 197 204 208 211 214 219 219 218 222 222 221 220 216 213 216 225 228 234 234 237 242 235 222 220 225 240 223 209
210 218 201 211 207 230 238 249 255 254 215 198 182 186 190 188 188 187 188 191 191 197 203 210 213 216 219 223 223 221 222 222 223 222 216 217 222 228 235 233 234 234 231 229 229 228 229 216 215
209 216 214 250 219 216 194 251 257 262 259 216 202 176 187 187 185 186 187 190 195 196 201 209 215 218 219 222 224 221 220 224 226 226 220 217 218 227 238 241 239 234 233 237 231 232 229 233 227
216 175 217 220 208 223 235 218 231 234 246 221 219 196 185 186 183 184 185 188 197 199 203 206 217 220 222 222 224 225 223 223 228 231 226 223 221 220 225 237 243 237 235 246 245 228 231 231 234
216 211 201 185 180 188 206 236 223 218 224 217 212 189 187 179 180 181 183 188 198 202 202 207 212 220 223 225 224 225 228 225 227 230 232 228 226 220 223 230 233 231 234 240 250 235 228 232 236
213 213 205 202 225 219 194 256 309 319 206 210 203 212 181 186 178 180 181 186 196 202 201 207 212 217 225 228 228 227 230 233 231 229 233 235 230 225 220 226 232 233 235 239 246 247 231 228 231